Location: Ch�tillon
(48.8024°N, 2.2935°E)
Time: 02:39:00
(UTC+00:00)

ATLAS 3B R/B - Pass Details

Date: 16 October 2021
Orbit: 989 x 1206 km, 63.8° (Epoch: 25 November)

Event Time Altitude Azimuth Distance (km) Brightness Sun altitude
Rises 20:17:45 0° 268° (W) 3,756 6.4 -32.8°
Reaches altitude 10° 20:20:42 10° 280° (W) 2,833 5.7 -33.2°
Maximum altitude 20:26:27 29° 339° (NNW) 1,837 4.2 -34.1°
Enters shadow 20:30:06 19° 24° (NNE) 2,338 4.5 -34.6°
